Weather History for Camp Pendleton, CA

Change the Weather History Date:

Monday, May 12, 2014

  Actual Average Record
Temperature  
Mean Temperature 66 °F -  
Max Temperature 91 °F 69 °F 97 °F (2013)
Min Temperature 43 °F 50 °F 42 °F (2000)
Cooling Degree Days 2    
Growing Degree Days 16 (Base 50)    
Moisture  
Dew Point 22 °F    
Average Humidity 22    
Maximum Humidity 58    
Minimum Humidity 5    
Precipitation  
Precipitation 0.00 in - - ()
Sea Level Pressure  
Sea Level Pressure 29.96 in    
Wind  
Wind Speed 4 mph (NNW)    
Max Wind Speed 16 mph    
Max Gust Speed 24 mph    
Visibility 9 miles    
Events      
Averages and records for this station are not official NWS values.
T = Trace of Precipitation, MM = Missing Value Source: NWS Daily Summary

Daily Weather History Graph

Daily Weather History Graph

Search for Another Location

Airport:

Trip Planner

Search our weather history database for the weather conditions in past years. The results will help you decide how hot, cold, wet, or windy it might be!

Date:

Astronomy

May. 12, 2014 Rise Set
Actual Time 5:51 AM PDT 7:40 PM PDT
Civil Twilight 5:24 AM PDT 8:07 PM PDT
Nautical Twilight 4:51 AM PDT 8:40 PM PDT
Astronomical Twilight 4:16 AM PDT 9:15 PM PDT
Moon 5:49 PM PDT (5/12) 4:25 AM PDT (5/12)
Length of Visible Light 14h 43m
Length of Day
13h 48m
Waxing Gibbous, 95% of the Moon is Illuminated
May 12
Waxing Gibbous
May 14
Full
May 21
Last Quarter
May 28
New
Jun 5
First Quarter

Hourly Weather History & Observations

Time (PDT) Temp. Windchill Dew Point Humidity Pressure Visibility Wind Dir Wind Speed Gust Speed Precip Events Conditions
12:54 AM 53.1 °F - 28.9 °F 40% 29.96 in 10.0 mi North 3.5 mph - N/A   Clear
1:54 AM 48.9 °F - 28.9 °F 46% 29.96 in 9.0 mi Calm Calm - N/A   Clear
2:54 AM 51.1 °F - 28.9 °F 43% 29.95 in 9.0 mi Calm Calm - N/A   Clear
3:54 AM 46.9 °F - 28.0 °F 48% 29.95 in 9.0 mi Calm Calm - N/A   Clear
4:54 AM 43.0 °F - 28.9 °F 58% 29.95 in 9.0 mi Calm Calm - N/A   Clear
5:54 AM 44.1 °F 42.5 °F 27.0 °F 51% 29.96 in 8.0 mi NE 3.5 mph - N/A   Clear
6:54 AM 50.0 °F - 30.0 °F 46% 29.98 in 8.0 mi Calm Calm - N/A   Clear
7:54 AM 62.1 °F - 35.1 °F 37% 29.99 in 7.0 mi Calm Calm - N/A   Scattered Clouds
8:54 AM 82.0 °F - 19.9 °F 10% 29.99 in 7.0 mi NE 9.2 mph - N/A   Scattered Clouds
9:54 AM 86.0 °F - 17.1 °F 8% 29.99 in 9.0 mi East 8.1 mph - N/A   Clear
10:54 AM 89.1 °F - 14.0 °F 6% 29.99 in 9.0 mi Variable 4.6 mph - N/A   Partly Cloudy
11:54 AM 90.0 °F - 10.0 °F 5% 29.97 in 9.0 mi Variable 4.6 mph - N/A   Clear
12:54 PM 90.0 °F - 21.0 °F 8% 29.95 in 9.0 mi SW 13.8 mph 24.2 mph N/A   Clear
1:54 PM 89.1 °F - 18.0 °F 7% 29.95 in 9.0 mi West 11.5 mph 24.2 mph N/A   Clear
2:54 PM 89.1 °F - 17.1 °F 7% 29.94 in 8.0 mi West 10.4 mph 23.0 mph N/A   Clear
3:54 PM 87.1 °F - 15.1 °F 7% 29.93 in 8.0 mi West 16.1 mph 23.0 mph N/A   Clear
4:54 PM 86.0 °F - 15.1 °F 7% 29.91 in 9.0 mi West 12.7 mph 23.0 mph N/A   Partly Cloudy
5:54 PM 87.1 °F - 17.1 °F 8% 29.91 in 8.0 mi Variable 6.9 mph - N/A   Partly Cloudy
6:54 PM 82.9 °F - 15.1 °F 8% 29.91 in 9.0 mi WNW 9.2 mph 20.7 mph N/A   Clear
7:54 PM 80.1 °F - 18.0 °F 10% 29.93 in 9.0 mi Variable 3.5 mph - N/A   Clear
8:54 PM 77.0 °F - 21.0 °F 12% 29.95 in 10.0 mi West 8.1 mph - N/A   Clear
9:54 PM 69.1 °F - 21.9 °F 17% 29.98 in 10.0 mi Calm Calm - N/A   Clear
10:54 PM 64.9 °F - 25.0 °F 22% 29.99 in 10.0 mi NE 6.9 mph - N/A   Clear
11:54 PM 61.0 °F - 26.1 °F 26% 29.99 in 9.0 mi NE 4.6 mph - N/A   Clear